TimeEDT,TemperatureF,Dew PointF,Humidity,Sea Level PressureIn,VisibilityMPH,Wind Direction,Wind SpeedMPH,Gust SpeedMPH,PrecipitationIn,Events,Conditions,WindDirDegrees,DateUTC
12:53 AM,57.0,54.0,89,29.90,8.0,ESE,9.2,-,N/A,,Overcast,110,2013-05-28 04:53:00
1:09 AM,57.2,53.6,88,29.89,8.0,East,9.2,-,N/A,,Overcast,100,2013-05-28 05:09:00
1:53 AM,57.0,54.0,89,29.90,7.0,SE,8.1,-,N/A,,Overcast,130,2013-05-28 05:53:00
2:53 AM,57.0,55.0,93,29.88,4.0,SSE,5.8,-,0.01,,Overcast,160,2013-05-28 06:53:00
3:53 AM,57.9,57.0,97,29.87,3.0,SSE,4.6,-,0.04,Rain,Light Rain,160,2013-05-28 07:53:00
4:02 AM,57.2,57.2,100,29.85,2.0,East,4.6,-,0.03,Rain,Rain,80,2013-05-28 08:02:00
4:18 AM,59.0,57.2,94,29.85,4.0,SSE,5.8,-,0.06,Rain,Light Rain,150,2013-05-28 08:18:00
4:53 AM,61.0,59.0,93,29.84,5.0,SE,6.9,-,0.07,,Overcast,130,2013-05-28 08:53:00
5:09 AM,60.8,60.8,100,29.84,6.0,SSE,6.9,-,N/A,,Overcast,150,2013-05-28 09:09:00
5:34 AM,60.8,60.8,100,29.85,5.0,Calm,Calm,-,N/A,,Overcast,0,2013-05-28 09:34:00
5:45 AM,62.6,60.8,94,29.85,7.0,ESE,3.5,-,N/A,,Overcast,110,2013-05-28 09:45:00
5:53 AM,62.1,60.1,93,29.84,6.0,ESE,4.6,-,N/A,,Overcast,120,2013-05-28 09:53:00
6:53 AM,64.0,61.0,90,29.83,10.0,SSE,5.8,-,N/A,,Overcast,150,2013-05-28 10:53:00
7:53 AM,66.0,63.0,90,29.85,10.0,South,6.9,-,N/A,,Overcast,170,2013-05-28 11:53:00
8:53 AM,68.0,63.0,84,29.82,10.0,South,10.4,-,N/A,,Mostly Cloudy,170,2013-05-28 12:53:00
9:53 AM,70.0,63.0,78,29.82,10.0,South,10.4,18.4,N/A,,Mostly Cloudy,180,2013-05-28 13:53:00
10:53 AM,71.1,64.0,78,29.81,10.0,South,10.4,19.6,0.01,,Scattered Clouds,190,2013-05-28 14:53:00
11:14 AM,69.8,64.4,83,29.80,10.0,South,11.5,-,0.04,Thunderstorm,Mostly Cloudy,180,2013-05-28 15:14:00
11:29 AM,69.8,64.4,83,29.80,10.0,South,12.7,-,0.04,,Overcast,180,2013-05-28 15:29:00
11:53 AM,72.0,64.9,78,29.80,10.0,South,13.8,21.9,0.04,,Mostly Cloudy,190,2013-05-28 15:53:00
12:53 PM,75.0,64.9,71,29.81,10.0,SSW,9.2,24.2,N/A,,Partly Cloudy,210,2013-05-28 16:53:00
1:53 PM,73.9,64.9,73,29.83,10.0,SW,11.5,-,N/A,,Overcast,220,2013-05-28 17:53:00
2:01 PM,73.4,64.4,73,29.83,10.0,SW,11.5,-,N/A,,Overcast,220,2013-05-28 18:01:00
2:09 PM,73.4,66.2,78,29.83,10.0,SW,12.7,-,N/A,,Overcast,220,2013-05-28 18:09:00
2:21 PM,73.4,64.4,73,29.82,10.0,SSW,15.0,21.9,N/A,,Overcast,210,2013-05-28 18:21:00
2:28 PM,73.4,64.4,73,29.82,10.0,SSW,10.4,21.9,N/A,,Overcast,210,2013-05-28 18:28:00
2:53 PM,73.0,64.9,76,29.81,10.0,SSW,4.6,-,N/A,,Overcast,200,2013-05-28 18:53:00
3:30 PM,73.4,66.2,78,29.82,8.0,SSW,6.9,17.3,0.00,Rain,Light Rain,210,2013-05-28 19:30:00
3:53 PM,73.0,66.9,81,29.81,10.0,SSW,3.5,-,0.01,,Overcast,210,2013-05-28 19:53:00
4:39 PM,75.2,68.0,78,29.80,10.0,SSW,10.4,-,N/A,,Overcast,210,2013-05-28 20:39:00
4:53 PM,75.0,68.0,79,29.80,10.0,SSW,8.1,-,N/A,,Overcast,200,2013-05-28 20:53:00
5:53 PM,78.1,68.0,71,29.78,10.0,SSW,8.1,-,N/A,,Mostly Cloudy,210,2013-05-28 21:53:00
6:53 PM,77.0,64.9,66,29.78,10.0,SW,12.7,21.9,N/A,,Overcast,220,2013-05-28 22:53:00
7:53 PM,75.0,66.0,73,29.78,10.0,SW,10.4,20.7,N/A,,Overcast,220,2013-05-28 23:53:00
8:15 PM,75.2,66.2,73,29.79,10.0,SW,12.7,19.6,N/A,,Overcast,220,2013-05-29 00:15:00
8:53 PM,75.0,66.0,73,29.77,10.0,SSW,12.7,23.0,N/A,,Overcast,210,2013-05-29 00:53:00
9:53 PM,73.9,68.0,82,29.78,6.0,SW,6.9,19.6,0.02,Rain-Thunderstorm,Thunderstorms and Rain,220,2013-05-29 01:53:00
10:42 PM,71.6,69.8,94,29.81,2.5,West,15.0,27.6,0.11,Rain-Thunderstorm,Light Thunderstorms and Rain,270,2013-05-29 02:42:00
10:53 PM,66.9,64.0,90,29.82,1.5,WSW,29.9,39.1,0.30,Rain-Thunderstorm,Heavy Thunderstorms and Rain,250,2013-05-29 02:53:00
10:59 PM,66.2,62.6,88,29.84,1.5,WSW,17.3,39.1,0.14,Rain-Thunderstorm,Heavy Thunderstorms and Rain,250,2013-05-29 02:59:00
11:05 PM,64.4,62.6,94,29.82,1.5,WSW,15.0,20.7,0.27,Rain-Thunderstorm,Heavy Thunderstorms and Rain,240,2013-05-29 03:05:00
11:13 PM,64.4,60.8,88,29.83,2.5,SSE,11.5,21.9,0.35,Rain-Thunderstorm,Heavy Thunderstorms and Rain,160,2013-05-29 03:13:00
11:22 PM,64.4,60.8,88,29.85,4.0,SSW,15.0,23.0,0.40,Rain-Thunderstorm,Thunderstorms and Rain,210,2013-05-29 03:22:00
11:53 PM,64.0,62.1,93,29.80,7.0,ESE,9.2,-,0.43,Rain,Light Rain,120,2013-05-29 03:53:00